DW3835 Weather Reports


Display with metric or nautical units.
time (UTC)temp
F
wind
direction
speed
MPH
gust
MPH
rain 1hr
in
rain 24hr
in
rain mn
in
humidity
%
barometer
mb
20260905190812 74 236 1.0 7.0 0.00 0.00 0.00 51 1013.5
20260905185827 74 340 1.0 5.0 0.00 0.00 0.00 51 1013.4
20260905184807 73 140 1.0 5.0 0.00 0.00 0.00 50 1013.5
20260905183745 73 166 1.0 4.0 0.00 0.00 0.00 54 1013.6
20260905182759 73 161 0.0 4.0 0.00 0.00 0.00 54 1013.6
20260905181758 72 290 0.0 7.0 0.00 0.00 0.00 56 1013.6
20260905180732 72 181 1.0 7.0 0.00 0.00 0.00 54 1013.5
20260905175753 71 195 1.0 4.0 0.00 0.00 0.00 55 1013.5
20260905174811 71 149 1.0 5.0 0.00 0.00 0.00 59 1013.6
20260905173808 71 167 1.0 5.0 0.00 0.00 0.00 62 1013.5
20260905172819 69 178 0.0 0.0 0.00 0.00 0.00 65 1013.4
20260905171844 69 179 0.0 0.0 0.00 0.00 0.00 72 1013.4
20260905170825 68 171 0.0 0.0 0.00 0.00 0.00 75 1013.4
20260905165803 67 258 0.0 0.0 0.00 0.00 0.00 76 1013.3
20260905164806 66 99 0.0 0.0 0.00 0.00 0.00 78 1013.2
20260905163822 65 159 0.0 0.0 0.00 0.00 0.00 80 1013.2
20260905162810 64 123 0.0 0.0 0.00 0.00 0.00 80 1013.2
20260905161757 63 112 0.0 0.0 0.00 0.00 0.00 82 1013.2
20260905160818 63 168 0.0 0.0 0.00 0.00 0.00 83 1013.2
20260905154704 61 85 0.0 0.0 0.00 0.00 0.00 87 1013.3
20260905153716 60 141 0.0 0.0 0.00 0.00 0.00 88 1013.3
20260905152652 59 85 0.0 0.0 0.00 0.00 0.00 89 1013.4
20260905145427 57 126 0.0 0.0 0.00 0.00 0.00 89 1013.2
20260905144405 57 147 0.0 0.0 0.00 0.00 0.00 89 1013.2
20260905142253 57 99 0.0 0.0 0.00 0.00 0.00 89 1013.1
20260905141219 57 196 0.0 0.0 0.00 0.00 0.00 89 1013.0
20260905140153 57 196 0.0 0.0 0.00 0.00 0.00 89 1013.0
20260905135217 57 196 0.0 0.0 0.00 0.00 0.00 89 1012.8
20260905134230 56 154 0.0 0.0 0.00 0.00 0.00 89 1012.7
20260905132048 56 231 0.0 0.0 0.00 0.00 0.00 89 1012.6
20260905131014 57 230 0.0 0.0 0.00 0.00 0.00 89 1012.6
20260905130017 57 199 0.0 0.0 0.00 0.00 0.00 89 1012.7
20260905122733 57 150 0.0 0.0 0.00 0.00 0.00 89 1012.8
20260905115449 57 154 0.0 0.0 0.00 0.00 0.00 89 1012.8
20260905114417 57 163 0.0 0.0 0.00 0.00 0.00 89 1012.8
20260905112234 57 98 0.0 0.0 0.00 0.00 0.00 88 1012.8
20260905111203 57 81 0.0 0.0 0.00 0.00 0.00 88 1012.8
20260905110150 57 98 0.0 0.0 0.00 0.00 0.00 88 1012.8
20260905105144 57 55 0.0 0.0 0.00 0.00 0.00 88 1012.8
20260905104148 57 69 0.0 0.0 0.00 0.00 0.00 88 1012.8
20260905103130 56 70 0.0 0.0 0.00 0.00 0.00 87 1012.9
20260905102155 57 82 0.0 0.0 0.00 0.00 0.00 87 1013.0
20260905101215 57 113 0.0 0.0 0.00 0.00 0.00 87 1013.2
20260905100215 57 114 0.0 0.0 0.00 0.00 0.00 87 1013.1
20260905095216 56 60 0.0 0.0 0.00 0.00 0.00 87 1013.0
20260905093036 56 55 0.0 0.0 0.00 0.01 0.00 86 1013.1
20260905092008 56 93 0.0 0.0 0.00 0.01 0.00 86 1013.1
20260905085827 56 93 0.0 0.0 0.00 0.01 0.00 86 1013.3
20260905083643 56 78 0.0 0.0 0.00 0.01 0.00 85 1013.3
20260905082617 56 77 0.0 0.0 0.00 0.01 0.00 84 1013.3
20260905081557 57 77 0.0 0.0 0.00 0.01 0.00 84 1013.2
20260905075418 57 67 0.0 0.0 0.00 0.01 0.00 84 1013.2
20260905074439 56 67 0.0 0.0 0.00 0.01 0.00 85 1013.3
20260905073446 56 67 0.0 0.0 0.00 0.01 0.00 85 1013.2
20260905072427 56 70 0.0 0.0 0.00 0.01 0.00 84 1013.0
20260905071416 56 65 0.0 0.0 0.00 0.01 0.00 85 1013.0
20260905070353 56 283 0.0 0.0 0.00 0.01 0.00 84 1013.0
20260905065347 57 203 0.0 0.0 0.00 0.01 0.01 84 1012.9
20260905064345 57 275 0.0 0.0 0.00 0.01 0.01 84 1012.9
20260905063402 57 275 0.0 0.0 0.00 0.01 0.01 84 1012.9
20260905062425 57 11 0.0 0.0 0.00 0.01 0.01 84 1012.9
20260905061419 57 5 0.0 0.0 0.00 0.01 0.01 84 1013.0
20260905060357 57 5 0.0 0.0 0.00 0.01 0.01 83 1013.0
20260905055347 57 5 0.0 0.0 0.00 0.01 0.01 83 1013.2
20260905054349 58 5 0.0 0.0 0.00 0.01 0.01 81 1013.2
20260905053409 58 5 0.0 0.0 0.00 0.01 0.01 81 1013.2
20260905052413 58 5 0.0 0.0 0.00 0.01 0.01 81 1013.2
20260905051437 58 5 0.0 0.0 0.00 0.01 0.01 81 1013.2
20260905050455 59 5 0.0 0.0 0.00 0.02 0.01 80 1013.3
20260905045435 59 181 0.0 0.0 0.00 0.03 0.01 80 1013.4
20260905044439 59 181 0.0 0.0 0.00 0.04 0.01 80 1013.4
20260905043422 60 181 0.0 0.0 0.00 0.04 0.01 80 1013.2
20260905040121 60 181 0.0 0.0 0.00 0.09 0.01 81 1013.1
20260905035109 60 180 0.0 0.0 0.00 0.10 0.01 81 1012.9
20260905030650 62 300 0.0 0.0 0.00 0.15 0.01 77 1012.5
20260905024510 62 99 0.0 0.0 0.00 0.20 0.01 75 1012.4
20260905023457 63 347 0.0 0.0 0.00 0.21 0.01 73 1012.4
20260905022430 63 34 0.0 0.0 0.00 0.23 0.01 73 1012.3
20260905021419 64 343 0.0 3.0 0.00 0.24 0.01 71 1012.3
20260905020351 64 44 0.0 1.0 0.00 0.24 0.01 70 1012.2
20260905015408 65 30 0.0 1.0 0.00 0.24 0.01 70 1012.3
20260905014425 65 33 0.0 5.0 0.00 0.25 0.01 70 1012.4
20260905013413 65 70 0.0 5.0 0.00 0.27 0.01 69 1012.3
20260905012417 65 64 0.0 4.0 0.00 0.27 0.01 67 1012.3
20260905011441 66 136 0.0 4.0 0.00 0.29 0.01 67 1012.3
20260905004154 68 197 0.0 5.0 0.00 0.30 0.01 63 1012.3
20260905003133 68 15 0.0 4.0 0.00 0.30 0.01 61 1012.2
20260905002129 68 243 0.0 4.0 0.00 0.30 0.01 62 1012.2
20260905001100 69 102 0.0 3.0 0.00 0.30 0.01 62 1012.2
20260904234913 69 184 1.0 8.0 0.00 0.30 0.01 62 1012.2
20260904233843 70 125 0.0 8.0 0.00 0.30 0.01 64 1012.3
20260904232825 70 339 0.0 7.0 0.00 0.30 0.01 61 1012.4
20260904231805 70 165 1.0 7.0 0.00 0.30 0.01 62 1012.4
20260904230801 70 217 1.0 3.0 0.00 0.30 0.01 60 1012.5
20260904225729 70 139 1.0 7.0 0.00 0.30 0.01 62 1012.5
20260904222407 71 179 1.0 5.0 0.00 0.30 0.01 60 1012.8
20260904221402 71 166 1.0 9.0 0.00 0.30 0.01 60 1012.8
20260904220411 72 178 1.0 9.0 0.00 0.30 0.01 60 1012.8
20260904215408 72 267 1.0 4.0 0.00 0.30 0.01 61 1012.8
20260904214344 72 168 1.0 5.0 0.00 0.30 0.01 62 1012.8
20260904213312 72 193 1.0 6.0 0.00 0.30 0.01 61 1012.9
20260904212246 72 147 1.0 6.0 0.00 0.30 0.01 61 1012.8
20260904211254 72 74 1.0 6.0 0.00 0.30 0.01 59 1012.8
20260904205055 73 78 1.0 7.0 0.00 0.30 0.01 58 1012.8
20260904204044 72 190 2.0 7.0 0.00 0.30 0.01 57 1012.7
20260904203032 72 176 1.0 6.0 0.00 0.30 0.01 56 1012.7
20260904202008 72 166 1.0 6.0 0.00 0.30 0.01 58 1012.7
20260904201001 71 214 1.0 6.0 0.00 0.30 0.01 59 1012.8
20260904195929 72 282 1.0 6.0 0.00 0.30 0.01 62 1012.7
20260904194947 72 47 1.0 6.0 0.00 0.30 0.01 62 1012.7
20260904192815 71 170 1.0 4.0 0.00 0.30 0.01 61 1012.8
20260904191821 70 186 1.0 6.0 0.00 0.30 0.01 62 1012.9